User: anonymous   Login
Location: Caltech
(34.1382°N, 118.1253°W)
Time: 14:24:37
(UTC-07:00)
Language:

ASTRO E2 - Orbit

View from above orbital plane
View from above orbital plane
View from above satellite
View from above satellite

Ground track
Ground track

The orbit data is extracted from the following two-line orbital elements,

1 28773U 05025A   15181.53256701  .00001532  00000-0  80046-4 0  9997
2 28773 031.3830 261.9285 0005014 355.8300 004.2303 15.12988577548455
Epoch (UTC): 30 June 2015 12:46:53
Eccentricity: 0.0005014
inclination: 31.3830°
perigee height: 523 km
apogee height: 530 km
right ascension of ascending node: 261.9285°
argument of perigee: 355.8300°
revolutions per day: 15.12988577
mean anomaly at epoch: 4.2303°
orbit number at epoch: 54845

The dashed part of the orbit path shows where the satellite is in the earth's shadow,  

DLR